Location: Jackson Park
(37.2862°N, 79.9123°W)
Time: 20:44:29
(UTC+00:00)

Vanguard 2 - Pass Details

Date: 14 May 2026
Orbit: 553 x 2894 km, 32.9° (Epoch: 6 June)

Event Time Altitude Azimuth Distance (km) Brightness Sun altitude
Rises 03:46:43 0° 185° (S) 5,882 - -30.3°
Reaches altitude 10° 03:52:38 10° 167° (SSE) 5,248 - -30.7°
Maximum altitude 04:01:21 17° 133° (SE) 5,018 - -31.4°
Exits shadow 04:08:15 13° 108° (ESE) 5,455 11.5 -31.9°
Drops below altitude 10° 04:10:38 10° 101° (E) 5,707 11.7 -32.0°
Sets 04:17:26 0° 84° (E) 6,625 12.2 -32.4°
